CW9119 Weather Reports


Display with metric or nautical units.
time (UTC)temp
F
wind
direction
speed
MPH
gust
MPH
rain 1hr
in
rain 24hr
in
rain mn
in
humidity
%
barometer
mb
20240621133112 83 137 3.0 12.0 0.00 0.00 0.00 54 1013.5
20240621132112 83 144 2.0 7.0 0.00 0.00 0.00 54 1013.6
20240621131112 83 148 3.0 10.0 0.00 0.00 0.00 56 1013.9
20240621130112 82 101 1.0 7.0 0.00 0.00 0.00 59 1014.3
20240621122112 81 134 2.0 10.0 0.00 0.00 0.00 60 1015.0
20240621111111 81 66 2.0 8.0 0.00 0.00 0.00 63 1015.7
20240621104111 80 173 2.0 11.0 0.00 0.00 0.00 64 1015.9
20240621102111 79 144 5.0 12.0 0.00 0.00 0.00 63 1015.9
20240621094111 77 142 1.0 7.0 0.00 0.00 0.00 65 1016.2
20240621092111 76 188 2.0 10.0 0.00 0.00 0.00 65 1016.5
20240621091110 76 159 5.0 11.0 0.00 0.00 0.00 65 1016.7
20240621090110 75 155 2.0 11.0 0.00 0.00 0.00 67 1016.8
20240621085110 75 151 2.0 11.0 0.00 0.00 0.00 67 1017.0
20240621084110 75 167 5.0 10.0 0.00 0.00 0.00 65 1017.0
20240621083110 74 205 3.0 10.0 0.00 0.00 0.00 66 1016.9
20240621082110 74 85 3.0 11.0 0.00 0.00 0.00 67 1017.1
20240621073110 72 153 3.0 10.0 0.00 0.00 0.00 68 1017.0
20240621071110 72 111 0.0 5.0 0.00 0.00 0.00 71 1017.1
20240621070109 71 113 1.0 7.0 0.00 0.00 0.00 71 1017.3
20240621063109 68 73 0.0 5.0 0.00 0.00 0.00 75 1017.1
20240621062109 67 40 3.0 7.0 0.00 0.00 0.00 76 1017.2
20240621061109 65 22 1.0 5.0 0.00 0.00 0.00 80 1017.1
20240621052109 60 85 0.0 1.0 0.00 0.00 0.00 90 1017.0
20240621050109 59 85 0.0 0.0 0.00 0.00 0.00 92 1017.2
20240621045109 58 85 0.0 0.0 0.00 0.00 0.00 92 1017.4
20240621041108 55 85 0.0 0.0 0.00 0.00 0.00 92 1017.5
20240621040108 55 85 0.0 0.0 0.00 0.00 0.00 92 1017.4
20240621035108 54 84 0.0 0.0 0.00 0.00 0.00 91 1017.3
20240621032108 54 84 0.0 0.0 0.00 0.00 0.00 90 1017.4
20240621025108 54 84 0.0 0.0 0.00 0.01 0.00 89 1017.6
20240621022108 55 85 0.0 0.0 0.00 0.01 0.00 89 1018.0
20240621020109 55 85 0.0 0.0 0.00 0.01 0.00 88 1017.9
20240621011108 56 85 0.0 0.0 0.00 0.01 0.00 86 1018.1
20240621010108 56 84 0.0 0.0 0.00 0.01 0.00 86 1018.1
20240621004108 56 84 0.0 0.0 0.00 0.01 0.00 85 1018.1
20240620235108 58 84 0.0 0.0 0.00 0.01 0.00 83 1018.9
20240620231108 59 84 0.0 0.0 0.00 0.01 0.00 81 1019.0
20240620225108 59 84 0.0 0.0 0.00 0.01 0.00 81 1019.1
20240620221108 60 84 0.0 0.0 0.00 0.01 0.00 80 1019.5
20240620215108 60 84 0.0 0.0 0.00 0.01 0.01 80 1019.8
20240620213108 60 84 0.0 1.0 0.00 0.01 0.01 79 1019.9
20240620212108 60 84 0.0 1.0 0.00 0.01 0.01 79 1020.2
20240620211108 61 84 0.0 0.0 0.00 0.01 0.01 78 1019.9
20240620205108 61 84 0.0 0.0 0.00 0.01 0.01 76 1020.0
20240620204108 61 84 0.0 0.0 0.00 0.01 0.01 76 1019.5
20240620203109 62 84 0.0 0.0 0.00 0.01 0.01 75 1019.4
20240620202108 62 84 0.0 0.0 0.00 0.01 0.01 74 1019.4
20240620195108 62 84 0.0 0.0 0.00 0.01 0.01 71 1019.1
20240620194108 63 84 0.0 0.0 0.00 0.01 0.01 71 1019.2
20240620192108 63 84 0.0 0.0 0.00 0.01 0.01 70 1018.7
20240620191108 64 84 0.0 1.0 0.00 0.01 0.01 68 1018.6
20240620185108 64 84 0.0 0.0 0.00 0.01 0.01 67 1018.4
20240620184108 64 84 0.0 0.0 0.00 0.01 0.01 66 1018.5
20240620181108 66 84 0.0 0.0 0.00 0.01 0.01 66 1018.9
20240620180108 66 84 0.0 0.0 0.00 0.01 0.01 67 1019.2
20240620174108 67 84 0.0 4.0 0.00 0.01 0.01 61 1019.5
20240620173108 67 84 0.0 0.0 0.00 0.01 0.01 62 1019.4
20240620172108 67 84 0.0 1.0 0.00 0.01 0.01 60 1019.3
20240620171108 68 84 0.0 1.0 0.00 0.01 0.01 59 1019.4
20240620164108 69 84 0.0 4.0 0.00 0.01 0.01 56 1019.4
20240620162108 69 80 0.0 0.0 0.00 0.01 0.01 56 1019.6
20240620161108 69 80 0.0 5.0 0.00 0.01 0.01 55 1019.5
20240620160108 69 69 0.0 1.0 0.00 0.01 0.01 60 1019.7
20240620155108 69 69 0.0 1.0 0.00 0.02 0.01 57 1019.9
20240620144108 69 68 0.0 1.0 0.00 0.03 0.01 55 1019.9
20240620142108 70 67 1.0 5.0 0.00 0.03 0.01 57 1020.2